| time (UTC) | temp C | wind direction | speed KPH | gust KPH | rain 1hr cm | rain 24hr cm | rain mn cm | humidity % | barometer mb |
| 20260510213038 | 30 | 250 | 4.8 | 0.0 | 0.00 | 0.00 | 0.00 | 74 | 1014.0 |
| 20260510211543 | 30 | 295 | 6.4 | 0.0 | 0.00 | 0.00 | 0.00 | 74 | 1014.1 |
| 20260510210037 | 29 | 258 | 8.0 | 0.0 | 0.00 | 0.00 | 0.00 | 75 | 1014.2 |
| 20260510204538 | 29 | 263 | 9.7 | 0.0 | 0.00 | 0.00 | 0.00 | 75 | 1014.2 |
| 20260510203035 | 30 | 284 | 6.4 | 0.0 | 0.00 | 0.00 | 0.00 | 73 | 1014.2 |
| 20260510201539 | 30 | 264 | 8.0 | 0.0 | 0.00 | 0.00 | 0.00 | 72 | 1014.2 |
| 20260510200034 | 30 | 130 | 8.0 | 0.0 | 0.00 | 0.00 | 0.00 | 73 | 1014.2 |
| 20260510194542 | 30 | 278 | 9.7 | 0.0 | 0.00 | 0.00 | 0.00 | 73 | 1014.2 |
| 20260510193040 | 30 | 102 | 9.7 | 0.0 | 0.00 | 0.00 | 0.00 | 71 | 1014.2 |
| 20260510191534 | 31 | 142 | 6.4 | 0.0 | 0.00 | 0.00 | 0.00 | 69 | 1014.3 |
| 20260510190048 | 31 | 245 | 6.4 | 0.0 | 0.00 | 0.00 | 0.00 | 68 | 1014.3 |
| 20260510184533 | 31 | 273 | 8.0 | 0.0 | 0.00 | 0.00 | 0.00 | 69 | 1014.3 |
| 20260510183131 | 31 | 230 | 8.0 | 0.0 | 0.00 | 0.00 | 0.00 | 71 | 1014.3 |
| 20260510181530 | 32 | 181 | 9.7 | 0.0 | 0.00 | 0.00 | 0.00 | 69 | 1014.6 |
| 20260510180038 | 32 | 196 | 9.7 | 0.0 | 0.00 | 0.00 | 0.00 | 69 | 1014.7 |
| 20260510174530 | 31 | 148 | 8.0 | 0.0 | 0.00 | 0.00 | 0.00 | 70 | 1014.7 |
| 20260510173029 | 32 | 285 | 9.7 | 0.0 | 0.00 | 0.00 | 0.00 | 65 | 1014.7 |
| 20260510171529 | 32 | 292 | 9.7 | 0.0 | 0.00 | 0.00 | 0.00 | 68 | 1014.8 |
| 20260510170027 | 32 | 296 | 9.7 | 0.0 | 0.00 | 0.00 | 0.00 | 67 | 1014.8 |
| 20260510164526 | 32 | 311 | 9.7 | 0.0 | 0.00 | 0.00 | 0.00 | 66 | 1014.8 |
| 20260510163036 | 33 | 262 | 6.4 | 0.0 | 0.00 | 0.00 | 0.00 | 65 | 1014.8 |
| 20260510161523 | 33 | 286 | 4.8 | 0.0 | 0.00 | 0.00 | 0.00 | 62 | 1014.8 |
| 20260510160020 | 32 | 121 | 8.0 | 0.0 | 0.00 | 0.00 | 0.00 | 68 | 1014.9 |
| 20260510154518 | 32 | 178 | 4.8 | 0.0 | 0.00 | 0.00 | 0.00 | 65 | 1014.9 |
| 20260510153015 | 32 | 130 | 4.8 | 0.0 | 0.00 | 0.00 | 0.00 | 61 | 1014.8 |
| 20260510151513 | 32 | 138 | 6.4 | 0.0 | 0.00 | 0.00 | 0.00 | 63 | 1014.8 |
| 20260510150010 | 32 | 209 | 6.4 | 0.0 | 0.00 | 0.00 | 0.00 | 64 | 1014.8 |
| 20260510144508 | 31 | 157 | 4.8 | 0.0 | 0.00 | 0.00 | 0.00 | 64 | 1014.7 |
| 20260510143003 | 31 | 160 | 4.8 | 0.0 | 0.00 | 0.00 | 0.00 | 70 | 1014.8 |
| 20260510141602 | 30 | 117 | 6.4 | 0.0 | 0.00 | 0.00 | 0.00 | 71 | 1014.8 |
| 20260510140057 | 30 | 199 | 4.8 | 0.0 | 0.00 | 0.00 | 0.00 | 72 | 1014.8 |
| 20260510134557 | 29 | 111 | 3.2 | 0.0 | 0.00 | 0.00 | 0.00 | 74 | 1014.7 |
| 20260510133049 | 28 | 236 | 3.2 | 0.0 | 0.00 | 0.00 | 0.00 | 78 | 1014.6 |
| 20260510131553 | 27 | 111 | 3.2 | 0.0 | 0.00 | 0.00 | 0.00 | 81 | 1014.4 |
| 20260510130040 | 26 | 76 | 4.8 | 0.0 | 0.00 | 0.00 | 0.00 | 84 | 1014.3 |
| 20260510124536 | 25 | 134 | 3.2 | 0.0 | 0.00 | 0.00 | 0.00 | 88 | 1014.3 |
| 20260510123032 | 24 | 315 | 1.6 | 0.0 | 0.00 | 0.00 | 0.00 | 92 | 1014.3 |
| 20260510121530 | 23 | 169 | 1.6 | 0.0 | 0.00 | 0.00 | 0.00 | 94 | 1014.2 |
| 20260510120028 | 22 | 83 | 1.6 | 0.0 | 0.00 | 0.00 | 0.00 | 94 | 1013.8 |
| 20260510114529 | 22 | 196 | 0.0 | 0.0 | 0.00 | 0.00 | 0.00 | 94 | 1013.7 |
| 20260510113022 | 22 | 76 | 1.6 | 0.0 | 0.00 | 0.00 | 0.00 | 94 | 1013.4 |
| 20260510111519 | 22 | 184 | 0.0 | 0.0 | 0.00 | 0.00 | 0.00 | 93 | 1013.3 |
| 20260510110026 | 22 | 355 | 0.0 | 0.0 | 0.00 | 0.00 | 0.00 | 93 | 1013.2 |
| 20260510104515 | 22 | 321 | 0.0 | 0.0 | 0.00 | 0.00 | 0.00 | 93 | 1012.8 |
| 20260510103017 | 22 | 321 | 0.0 | 0.0 | 0.00 | 0.00 | 0.00 | 92 | 1012.9 |
| 20260510101513 | 22 | 29 | 0.0 | 0.0 | 0.00 | 0.00 | 0.00 | 92 | 1012.6 |
| 20260510100027 | 22 | 29 | 0.0 | 0.0 | 0.00 | 0.00 | 0.00 | 92 | 1012.2 |
| 20260510094514 | 22 | 29 | 0.0 | 0.0 | 0.00 | 0.00 | 0.00 | 91 | 1012.2 |
| 20260510093009 | 22 | 29 | 0.0 | 0.0 | 0.00 | 0.00 | 0.00 | 92 | 1012.2 |
| 20260510091508 | 22 | 30 | 0.0 | 0.0 | 0.00 | 0.00 | 0.00 | 92 | 1011.7 |
| 20260510090010 | 23 | 55 | 0.0 | 0.0 | 0.00 | 0.00 | 0.00 | 91 | 1011.6 |
| 20260510084506 | 23 | 113 | 0.0 | 0.0 | 0.00 | 0.00 | 0.00 | 92 | 1011.4 |
| 20260510083017 | 23 | 170 | 1.6 | 0.0 | 0.00 | 0.00 | 0.00 | 92 | 1011.2 |
| 20260510081505 | 23 | 77 | 1.6 | 0.0 | 0.00 | 0.00 | 0.00 | 92 | 1011.5 |
| 20260510080012 | 23 | 132 | 1.6 | 0.0 | 0.00 | 0.00 | 0.00 | 92 | 1011.5 |
| 20260510074502 | 23 | 98 | 1.6 | 0.0 | 0.00 | 0.00 | 0.00 | 91 | 1011.6 |
| 20260510073106 | 23 | 130 | 0.0 | 0.0 | 0.00 | 0.00 | 0.00 | 91 | 1011.6 |
| 20260510073001 | 23 | 130 | 0.0 | 0.0 | 0.00 | 0.00 | 0.00 | 91 | 1011.6 |
| 20260510071600 | 23 | 42 | 0.0 | 0.0 | 0.00 | 0.00 | 0.00 | 91 | 1011.8 |
| 20260510070058 | 23 | 42 | 0.0 | 0.0 | 0.00 | 0.00 | 0.00 | 91 | 1011.9 |
| 20260510064556 | 24 | 42 | 0.0 | 0.0 | 0.00 | 0.00 | 0.00 | 91 | 1012.2 |
| 20260510063056 | 24 | 311 | 0.0 | 0.0 | 0.00 | 0.00 | 0.00 | 91 | 1012.3 |
| 20260510061556 | 24 | 72 | 0.0 | 0.0 | 0.00 | 0.00 | 0.00 | 91 | 1012.2 |
| 20260510060055 | 24 | 96 | 0.0 | 0.0 | 0.00 | 0.00 | 0.00 | 92 | 1012.6 |
| 20260510054555 | 24 | 96 | 0.0 | 0.0 | 0.00 | 0.00 | 0.00 | 92 | 1012.8 |
| 20260510053052 | 24 | 91 | 0.0 | 0.0 | 0.00 | 0.00 | 0.00 | 92 | 1013.0 |
| 20260510051552 | 24 | 91 | 0.0 | 0.0 | 0.00 | 0.00 | 0.00 | 92 | 1013.2 |
| 20260510050052 | 24 | 91 | 0.0 | 0.0 | 0.00 | 0.00 | 0.00 | 92 | 1013.2 |
| 20260510044557 | 24 | 107 | 0.0 | 0.0 | 0.00 | 0.00 | 0.00 | 92 | 1013.2 |
| 20260510043103 | 24 | 107 | 0.0 | 0.0 | 0.00 | 0.00 | 0.00 | 92 | 1013.3 |
| 20260510041549 | 24 | 279 | 0.0 | 0.0 | 0.00 | 0.00 | 0.00 | 92 | 1013.4 |
| 20260510040056 | 24 | 279 | 0.0 | 0.0 | 0.00 | 0.00 | 0.00 | 91 | 1013.3 |
| 20260510034548 | 24 | 279 | 0.0 | 0.0 | 0.00 | 0.00 | 0.00 | 91 | 1013.3 |
| 20260510033101 | 24 | 279 | 0.0 | 0.0 | 0.00 | 0.00 | 0.00 | 91 | 1013.2 |
| 20260510031553 | 24 | 279 | 0.0 | 0.0 | 0.00 | 0.00 | 0.00 | 90 | 1013.2 |
| 20260510030048 | 25 | 279 | 0.0 | 0.0 | 0.00 | 0.00 | 0.00 | 90 | 1013.0 |
| 20260510024545 | 25 | 279 | 0.0 | 0.0 | 0.00 | 0.00 | 0.00 | 90 | 1012.7 |
| 20260510023043 | 25 | 279 | 0.0 | 0.0 | 0.00 | 0.00 | 0.00 | 89 | 1012.7 |
| 20260510021544 | 25 | 279 | 0.0 | 0.0 | 0.00 | 0.00 | 0.00 | 89 | 1012.8 |
| 20260510020047 | 25 | 279 | 0.0 | 0.0 | 0.00 | 0.00 | 0.00 | 88 | 1012.9 |
| 20260510014547 | 25 | 279 | 0.0 | 0.0 | 0.00 | 0.00 | 0.00 | 86 | 1012.7 |
| 20260510013042 | 25 | 279 | 0.0 | 0.0 | 0.00 | 0.00 | 0.00 | 86 | 1012.6 |
| 20260510011544 | 25 | 279 | 0.0 | 0.0 | 0.00 | 0.00 | 0.00 | 85 | 1012.2 |
| 20260510010040 | 26 | 305 | 0.0 | 0.0 | 0.00 | 0.00 | 0.00 | 85 | 1012.2 |
| 20260510004540 | 26 | 305 | 1.6 | 0.0 | 0.00 | 0.00 | 0.00 | 84 | 1012.0 |
| 20260510003040 | 26 | 246 | 1.6 | 0.0 | 0.00 | 0.00 | 0.00 | 83 | 1012.1 |
| 20260510001543 | 26 | 259 | 1.6 | 0.0 | 0.00 | 0.00 | 0.00 | 81 | 1011.8 |
| 20260510000058 | 26 | 266 | 4.8 | 0.0 | 0.00 | 0.00 | 0.00 | 81 | 1011.7 |
| 20260509234549 | 27 | 257 | 3.2 | 0.0 | 0.00 | 0.00 | 0.00 | 78 | 1011.3 |
| 20260509233045 | 27 | 244 | 3.2 | 0.0 | 0.00 | 0.00 | 0.00 | 73 | 1011.5 |
| 20260509231538 | 28 | 285 | 4.8 | 0.0 | 0.00 | 0.00 | 0.00 | 71 | 1011.2 |
| 20260509230038 | 28 | 258 | 4.8 | 0.0 | 0.00 | 0.00 | 0.00 | 69 | 1011.1 |
| 20260509224537 | 28 | 157 | 4.8 | 0.0 | 0.00 | 0.00 | 0.00 | 67 | 1011.0 |
| 20260509223039 | 29 | 252 | 3.2 | 0.0 | 0.00 | 0.00 | 0.00 | 64 | 1011.0 |
| 20260509221537 | 30 | 119 | 6.4 | 0.0 | 0.00 | 0.00 | 0.00 | 61 | 1010.6 |
| 20260509220036 | 30 | 260 | 8.0 | 0.0 | 0.00 | 0.00 | 0.00 | 57 | 1010.6 |
| 20260509214535 | 31 | 263 | 4.8 | 0.0 | 0.00 | 0.00 | 0.00 | 53 | 1010.5 |